Time,TemperatureF,DewpointF,PressureIn,WindDirection,WindDirectionDegrees,WindSpeedMPH,WindSpeedGustMPH,Humidity,HourlyPrecipIn,Conditions,Clouds,dailyrainin,SolarRadiationWatts/m^2,SoftwareType,DateUTC
2013-06-21 00:01:00,66.1,57.6,30.24,SSE,157,2.3,2.3,74,0.00,CLR,,0.00,0.0,WeatherDisplay:10.37,2013-06-21 04:01:00,
2013-06-21 00:02:00,66.0,57.5,30.24,SSE,157,1.2,1.2,74,0.00,CLR,,0.00,0.0,WeatherDisplay:10.37,2013-06-21 04:02:00,
2013-06-21 00:07:00,65.8,57.3,30.24,SSE,157,2.3,2.3,74,0.00,CLR,,0.00,0.0,WeatherDisplay:10.37,2013-06-21 04:07:00,
2013-06-21 00:12:00,65.6,57.1,30.24,SE,124,2.3,2.3,74,0.00,CLR,,0.00,0.0,WeatherDisplay:10.37,2013-06-21 04:12:00,
2013-06-21 00:17:00,65.6,57.5,30.24,South,175,2.3,2.3,75,0.00,CLR,,0.00,0.0,WeatherDisplay:10.37,2013-06-21 04:17:00,
2013-06-21 00:22:00,65.6,57.5,30.25,South,178,3.0,3.0,75,0.00,CLR,,0.00,0.0,WeatherDisplay:10.37,2013-06-21 04:22:00,
2013-06-21 00:27:00,65.7,57.2,30.25,ESE,122,2.3,2.3,74,0.00,CLR,,0.00,0.0,WeatherDisplay:10.37,2013-06-21 04:27:00,
2013-06-21 00:32:00,65.7,57.2,30.25,ESE,122,2.3,2.3,74,0.00,CLR,,0.00,0.0,WeatherDisplay:10.37,2013-06-21 04:32:00,
2013-06-21 00:37:00,65.7,57.2,30.25,SE,141,2.3,2.3,74,0.00,CLR,,0.00,0.0,WeatherDisplay:10.37,2013-06-21 04:37:00,
2013-06-21 00:42:00,65.5,57.0,30.25,SE,140,1.2,1.2,74,0.00,CLR,,0.00,0.0,WeatherDisplay:10.37,2013-06-21 04:42:00,
2013-06-21 00:47:00,65.3,57.2,30.25,South,186,2.3,2.3,75,0.00,CLR,,0.00,0.0,WeatherDisplay:10.37,2013-06-21 04:47:00,
2013-06-21 00:52:00,65.2,57.1,30.25,SSE,167,1.2,1.2,75,0.00,CLR,,0.00,0.0,WeatherDisplay:10.37,2013-06-21 04:52:00,
2013-06-21 00:57:00,65.1,57.0,30.26,SE,134,2.3,2.3,75,0.00,CLR,,0.00,0.0,WeatherDisplay:10.37,2013-06-21 04:57:00,
2013-06-21 01:02:00,64.9,56.8,30.26,SE,134,2.3,2.3,75,0.00,CLR,,0.00,0.0,WeatherDisplay:10.37,2013-06-21 05:02:00,
2013-06-21 01:07:00,64.8,56.7,30.26,SSE,159,2.3,2.3,75,0.00,CLR,,0.00,0.0,WeatherDisplay:10.37,2013-06-21 05:07:00,
2013-06-21 01:12:00,64.7,57.0,30.26,ESE,123,2.3,2.3,76,0.00,CLR,,0.00,0.0,WeatherDisplay:10.37,2013-06-21 05:12:00,
2013-06-21 01:17:00,64.5,56.8,30.27,SE,130,1.2,1.2,76,0.00,CLR,,0.00,0.0,WeatherDisplay:10.37,2013-06-21 05:17:00,
2013-06-21 01:22:00,64.3,56.6,30.26,SE,129,2.3,2.3,76,0.00,CLR,,0.00,0.0,WeatherDisplay:10.37,2013-06-21 05:22:00,
2013-06-21 01:27:00,64.4,56.7,30.27,SE,129,1.2,1.2,76,0.00,CLR,,0.00,0.0,WeatherDisplay:10.37,2013-06-21 05:27:00,
2013-06-21 01:32:00,64.4,56.7,30.26,SE,129,2.3,2.3,76,0.00,CLR,,0.00,0.0,WeatherDisplay:10.37,2013-06-21 05:32:00,
2013-06-21 01:37:00,64.3,56.6,30.26,SSE,158,3.5,3.5,76,0.00,CLR,,0.00,0.0,WeatherDisplay:10.37,2013-06-21 05:37:00,
2013-06-21 01:42:00,64.2,56.5,30.26,ESE,113,3.5,3.5,76,0.00,CLR,,0.00,0.0,WeatherDisplay:10.37,2013-06-21 05:42:00,
2013-06-21 01:47:00,64.2,56.1,30.26,SE,126,3.5,3.5,75,0.00,CLR,,0.00,0.0,WeatherDisplay:10.37,2013-06-21 05:47:00,
2013-06-21 01:52:00,64.1,56.0,30.26,SE,138,3.5,3.5,75,0.00,CLR,,0.00,0.0,WeatherDisplay:10.37,2013-06-21 05:52:00,
2013-06-21 01:57:00,64.1,56.0,30.26,SSE,161,3.5,3.5,75,0.00,CLR,,0.00,0.0,WeatherDisplay:10.37,2013-06-21 05:57:00,
2013-06-21 02:02:00,64.0,55.9,30.26,South,183,4.6,4.6,75,0.00,CLR,,0.00,0.0,WeatherDisplay:10.37,2013-06-21 06:02:00,
2013-06-21 02:07:00,63.8,55.7,30.26,SE,131,2.3,2.3,75,0.00,CLR,,0.00,0.0,WeatherDisplay:10.37,2013-06-21 06:07:00,
2013-06-21 02:12:00,63.7,55.6,30.26,South,175,3.5,3.5,75,0.00,CLR,,0.00,0.0,WeatherDisplay:10.37,2013-06-21 06:12:00,
2013-06-21 02:17:00,63.6,55.5,30.25,ESE,123,4.0,4.0,75,0.00,CLR,,0.00,0.0,WeatherDisplay:10.37,2013-06-21 06:17:00,
2013-06-21 02:22:00,63.6,55.5,30.25,ESE,123,4.6,4.6,75,0.00,CLR,,0.00,0.0,WeatherDisplay:10.37,2013-06-21 06:22:00,
2013-06-21 02:27:00,63.4,55.3,30.25,South,170,2.3,2.3,75,0.00,CLR,,0.00,0.0,WeatherDisplay:10.37,2013-06-21 06:27:00,
2013-06-21 02:32:00,63.2,55.1,30.25,ESE,116,2.3,2.3,75,0.00,CLR,,0.00,0.0,WeatherDisplay:10.37,2013-06-21 06:32:00,
2013-06-21 02:37:00,63.1,55.0,30.25,SE,138,2.3,2.3,75,0.00,CLR,,0.00,0.0,WeatherDisplay:10.37,2013-06-21 06:37:00,
2013-06-21 02:42:00,63.1,54.7,30.25,South,183,3.5,3.5,74,0.00,CLR,,0.00,0.0,WeatherDisplay:10.37,2013-06-21 06:42:00,
2013-06-21 02:47:00,63.0,54.6,30.25,SE,133,1.2,1.2,74,0.00,CLR,,0.00,0.0,WeatherDisplay:10.37,2013-06-21 06:47:00,
2013-06-21 02:52:00,62.9,54.5,30.25,SSE,150,2.3,2.3,74,0.00,CLR,,0.00,0.0,WeatherDisplay:10.37,2013-06-21 06:52:00,
2013-06-21 02:57:00,62.8,54.4,30.25,SSE,167,2.3,2.3,74,0.00,CLR,,0.00,0.0,WeatherDisplay:10.37,2013-06-21 06:57:00,
2013-06-21 03:02:00,62.6,54.2,30.25,SSE,153,3.5,3.5,74,0.00,CLR,,0.00,0.0,WeatherDisplay:10.37,2013-06-21 07:02:00,
2013-06-21 03:07:00,62.6,54.2,30.25,SE,138,2.3,2.3,74,0.00,CLR,,0.00,0.0,WeatherDisplay:10.37,2013-06-21 07:07:00,
2013-06-21 03:12:00,62.5,54.1,30.25,SSE,155,1.2,1.2,74,0.00,CLR,,0.00,0.0,WeatherDisplay:10.37,2013-06-21 07:12:00,
2013-06-21 03:17:00,62.5,53.7,30.25,ESE,108,1.2,1.2,73,0.00,CLR,,0.00,0.0,WeatherDisplay:10.37,2013-06-21 07:17:00,
2013-06-21 03:22:00,62.4,53.6,30.25,SE,125,2.3,2.3,73,0.00,CLR,,0.00,0.0,WeatherDisplay:10.37,2013-06-21 07:22:00,
2013-06-21 03:27:00,62.4,53.6,30.25,South,177,1.2,1.2,73,0.00,CLR,,0.00,0.0,WeatherDisplay:10.37,2013-06-21 07:27:00,
2013-06-21 03:32:00,62.3,53.5,30.25,South,180,1.2,1.2,73,0.00,CLR,,0.00,0.0,WeatherDisplay:10.37,2013-06-21 07:32:00,
2013-06-21 03:37:00,62.2,53.1,30.25,South,180,1.2,1.2,72,0.00,CLR,,0.00,0.0,WeatherDisplay:10.37,2013-06-21 07:37:00,
2013-06-21 03:42:00,62.1,53.0,30.25,SE,128,1.2,1.2,72,0.00,CLR,,0.00,0.0,WeatherDisplay:10.37,2013-06-21 07:42:00,
2013-06-21 03:47:00,62.0,52.9,30.25,SE,142,0.0,0.0,72,0.00,CLR,,0.00,0.0,WeatherDisplay:10.37,2013-06-21 07:47:00,
2013-06-21 03:52:00,62.0,52.5,30.25,SE,142,1.2,1.2,71,0.00,CLR,,0.00,0.0,WeatherDisplay:10.37,2013-06-21 07:52:00,
2013-06-21 03:57:00,61.9,52.4,30.25,SE,142,2.3,2.3,71,0.00,CLR,,0.00,0.0,WeatherDisplay:10.37,2013-06-21 07:57:00,
2013-06-21 04:02:00,61.6,52.5,30.25,SE,142,1.2,1.2,72,0.00,CLR,,0.00,0.0,WeatherDisplay:10.37,2013-06-21 08:02:00,
2013-06-21 04:07:00,61.3,52.2,30.25,SE,142,1.2,1.2,72,0.00,CLR,,0.00,0.0,WeatherDisplay:10.37,2013-06-21 08:07:00,
2013-06-21 04:12:00,61.0,52.3,30.25,SE,142,0.0,0.0,73,0.00,CLR,,0.00,0.0,WeatherDisplay:10.37,2013-06-21 08:12:00,
2013-06-21 04:17:00,60.7,52.0,30.25,SE,142,0.0,0.0,73,0.00,CLR,,0.00,0.0,WeatherDisplay:10.37,2013-06-21 08:17:00,
2013-06-21 04:22:00,60.4,52.1,30.25,SE,142,0.0,0.0,74,0.00,CLR,,0.00,0.0,WeatherDisplay:10.37,2013-06-21 08:22:00,
2013-06-21 04:27:00,60.3,52.0,30.25,SE,142,0.0,0.0,74,0.00,CLR,,0.00,0.0,WeatherDisplay:10.37,2013-06-21 08:27:00,
2013-06-21 04:32:00,60.2,51.9,30.25,SE,142,1.2,0.0,74,0.00,CLR,,0.00,0.0,WeatherDisplay:10.37,2013-06-21 08:32:00,
2013-06-21 04:37:00,60.1,51.4,30.25,SE,142,0.0,0.0,73,0.00,CLR,,0.00,0.0,WeatherDisplay:10.37,2013-06-21 08:37:00,
2013-06-21 04:42:00,60.3,51.2,30.25,SE,142,0.0,0.0,72,0.00,CLR,,0.00,0.0,WeatherDisplay:10.37,2013-06-21 08:42:00,
2013-06-21 04:47:00,60.3,51.2,30.25,SE,142,0.0,0.0,72,0.00,CLR,,0.00,0.0,WeatherDisplay:10.37,2013-06-21 08:47:00,
2013-06-21 04:52:00,60.4,51.3,30.25,SE,142,0.0,0.0,72,0.00,CLR,,0.00,0.0,WeatherDisplay:10.37,2013-06-21 08:52:00,
2013-06-21 04:57:00,60.4,51.3,30.25,SE,142,0.0,0.0,72,0.00,CLR,,0.00,0.0,WeatherDisplay:10.37,2013-06-21 08:57:00,
2013-06-21 05:02:00,60.3,51.2,30.26,SE,142,0.0,0.0,72,0.00,CLR,,0.00,0.0,WeatherDisplay:10.37,2013-06-21 09:02:00,
2013-06-21 05:07:00,60.2,51.1,30.26,SE,142,0.0,0.0,72,0.00,CLR,,0.00,0.0,WeatherDisplay:10.37,2013-06-21 09:07:00,
2013-06-21 05:12:00,60.1,51.0,30.26,SE,142,0.0,0.0,72,0.00,CLR,,0.00,0.0,WeatherDisplay:10.37,2013-06-21 09:12:00,
2013-06-21 05:17:00,60.0,50.9,30.26,SE,142,0.0,0.0,72,0.00,CLR,,0.00,0.0,WeatherDisplay:10.37,2013-06-21 09:17:00,
2013-06-21 05:22:00,60.0,50.9,30.26,SE,142,0.0,0.0,72,0.00,CLR,,0.00,0.0,WeatherDisplay:10.37,2013-06-21 09:22:00,
2013-06-21 05:27:00,60.0,51.3,30.26,SE,142,0.0,0.0,73,0.00,CLR,,0.00,0.0,WeatherDisplay:10.37,2013-06-21 09:27:00,
2013-06-21 05:32:00,59.9,51.2,30.26,SE,142,0.0,0.0,73,0.00,CLR,,0.00,0.0,WeatherDisplay:10.37,2013-06-21 09:32:00,
2013-06-21 05:37:00,59.7,51.4,30.26,SE,142,0.0,0.0,74,0.00,CLR,,0.00,0.0,WeatherDisplay:10.37,2013-06-21 09:37:00,
2013-06-21 05:42:00,59.6,51.7,30.26,SE,142,0.0,0.0,75,0.00,CLR,,0.00,7.0,WeatherDisplay:10.37,2013-06-21 09:42:00,
2013-06-21 05:47:00,59.5,51.6,30.27,SE,142,0.0,0.0,75,0.00,CLR,,0.00,9.0,WeatherDisplay:10.37,2013-06-21 09:47:00,
2013-06-21 05:52:00,59.5,51.9,30.27,SE,142,0.0,0.0,76,0.00,CLR,,0.00,12.0,WeatherDisplay:10.37,2013-06-21 09:52:00,
2013-06-21 05:57:00,59.4,51.8,30.26,SE,142,0.0,0.0,76,0.00,CLR,,0.00,18.0,WeatherDisplay:10.37,2013-06-21 09:57:00,
2013-06-21 06:02:00,59.4,51.8,30.27,SE,142,0.0,0.0,76,0.00,CLR,,0.00,28.0,WeatherDisplay:10.37,2013-06-21 10:02:00,
2013-06-21 06:07:00,59.4,51.8,30.27,SE,142,0.0,0.0,76,0.00,CLR,,0.00,35.0,WeatherDisplay:10.37,2013-06-21 10:07:00,
2013-06-21 06:12:00,59.5,51.9,30.27,SE,142,0.0,0.0,76,0.00,CLR,,0.00,46.0,WeatherDisplay:10.37,2013-06-21 10:12:00,
2013-06-21 06:17:00,60.2,53.0,30.27,SE,142,1.2,0.0,77,0.00,CLR,,0.00,56.0,WeatherDisplay:10.37,2013-06-21 10:17:00,
2013-06-21 06:22:00,60.7,53.1,30.27,SE,142,0.0,0.0,76,0.00,CLR,,0.00,65.0,WeatherDisplay:10.37,2013-06-21 10:22:00,
2013-06-21 06:27:00,61.1,53.1,30.27,SE,142,0.0,0.0,75,0.00,CLR,,0.00,76.0,WeatherDisplay:10.37,2013-06-21 10:27:00,
2013-06-21 06:32:00,61.6,52.9,30.27,SE,142,0.0,0.0,73,0.00,CLR,,0.00,88.0,WeatherDisplay:10.37,2013-06-21 10:32:00,
2013-06-21 06:37:00,62.1,53.7,30.28,SE,142,0.0,0.0,74,0.00,CLR,,0.00,98.0,WeatherDisplay:10.37,2013-06-21 10:37:00,
2013-06-21 06:42:00,62.7,53.9,30.28,SE,142,0.0,0.0,73,0.00,CLR,,0.00,111.0,WeatherDisplay:10.37,2013-06-21 10:42:00,
2013-06-21 06:47:00,63.2,53.6,30.28,SE,142,0.0,0.0,71,0.00,CLR,,0.00,123.0,WeatherDisplay:10.37,2013-06-21 10:47:00,
2013-06-21 06:52:00,63.6,53.6,30.28,SE,142,0.0,0.0,70,0.00,CLR,,0.00,137.0,WeatherDisplay:10.37,2013-06-21 10:52:00,
2013-06-21 06:57:00,64.1,54.1,30.28,SE,142,0.0,0.0,70,0.00,CLR,,0.00,148.0,WeatherDisplay:10.37,2013-06-21 10:57:00,
2013-06-21 07:02:00,64.8,54.4,30.28,SE,142,0.0,0.0,69,0.00,CLR,,0.00,162.0,WeatherDisplay:10.37,2013-06-21 11:02:00,
2013-06-21 07:07:00,65.5,55.1,30.28,SE,142,0.0,0.1,69,0.00,CLR,,0.00,176.0,WeatherDisplay:10.37,2013-06-21 11:07:00,
2013-06-21 07:12:00,65.9,54.6,30.28,SE,142,0.0,0.0,67,0.00,CLR,,0.00,186.0,WeatherDisplay:10.37,2013-06-21 11:12:00,
2013-06-21 07:17:00,66.2,54.9,30.28,SE,142,0.0,0.0,67,0.00,CLR,,0.00,206.0,WeatherDisplay:10.37,2013-06-21 11:17:00,
2013-06-21 07:22:00,66.2,55.7,30.28,SE,142,0.0,0.0,69,0.00,CLR,,0.00,221.0,WeatherDisplay:10.37,2013-06-21 11:22:00,
2013-06-21 07:27:00,66.0,55.1,30.28,SE,142,1.0,0.0,68,0.00,CLR,,0.00,234.0,WeatherDisplay:10.37,2013-06-21 11:27:00,
2013-06-21 07:32:00,65.8,55.3,30.28,SE,142,0.0,0.0,69,0.00,CLR,,0.00,246.0,WeatherDisplay:10.37,2013-06-21 11:32:00,
2013-06-21 07:37:00,66.3,55.8,30.29,SE,142,1.2,1.2,69,0.00,CLR,,0.00,265.0,WeatherDisplay:10.37,2013-06-21 11:37:00,
2013-06-21 07:42:00,66.8,55.9,30.29,SE,142,1.2,1.2,68,0.00,CLR,,0.00,279.0,WeatherDisplay:10.37,2013-06-21 11:42:00,
2013-06-21 07:47:00,66.9,56.4,30.28,SE,142,2.3,2.3,69,0.00,CLR,,0.00,297.0,WeatherDisplay:10.37,2013-06-21 11:47:00,
2013-06-21 07:52:00,67.0,57.3,30.29,SE,142,2.0,2.0,71,0.00,CLR,,0.00,306.0,WeatherDisplay:10.37,2013-06-21 11:52:00,
2013-06-21 07:57:00,67.3,57.2,30.29,SE,142,1.2,1.2,70,0.00,CLR,,0.00,316.0,WeatherDisplay:10.37,2013-06-21 11:57:00,
2013-06-21 08:02:00,67.5,56.2,30.29,SE,142,1.0,0.0,67,0.00,CLR,,0.00,339.0,WeatherDisplay:10.37,2013-06-21 12:02:00,
2013-06-21 08:07:00,67.5,56.6,30.29,South,178,2.3,2.3,68,0.00,CLR,,0.00,304.0,WeatherDisplay:10.37,2013-06-21 12:07:00,
2013-06-21 08:12:00,67.6,56.2,30.29,South,178,1.2,1.2,67,0.00,CLR,,0.00,374.0,WeatherDisplay:10.37,2013-06-21 12:12:00,
2013-06-21 08:17:00,67.6,56.2,30.30,South,178,1.2,1.2,67,0.00,CLR,,0.00,387.0,WeatherDisplay:10.37,2013-06-21 12:17:00,
2013-06-21 08:22:00,67.9,56.9,30.29,South,183,2.3,2.3,68,0.00,CLR,,0.00,404.0,WeatherDisplay:10.37,2013-06-21 12:22:00,
2013-06-21 08:27:00,68.1,56.3,30.29,South,183,1.2,1.2,66,0.00,CLR,,0.00,418.0,WeatherDisplay:10.37,2013-06-21 12:27:00,
2013-06-21 08:32:00,68.4,57.0,30.29,SSW,198,3.5,3.5,67,0.00,CLR,,0.00,432.0,WeatherDisplay:10.37,2013-06-21 12:32:00,
2013-06-21 08:37:00,68.6,56.8,30.29,SSW,198,1.2,1.2,66,0.00,CLR,,0.00,452.0,WeatherDisplay:10.37,2013-06-21 12:37:00,
2013-06-21 08:42:00,68.8,56.6,30.29,SSW,196,3.5,3.5,65,0.00,CLR,,0.00,464.0,WeatherDisplay:10.37,2013-06-21 12:42:00,
2013-06-21 08:47:00,69.0,57.2,30.29,SSW,198,3.5,3.5,66,0.00,CLR,,0.00,482.0,WeatherDisplay:10.37,2013-06-21 12:47:00,
2013-06-21 08:52:00,69.1,56.8,30.29,SSW,195,3.5,3.5,65,0.00,CLR,,0.00,496.0,WeatherDisplay:10.37,2013-06-21 12:52:00,
2013-06-21 08:57:00,69.2,57.4,30.29,South,182,3.5,3.5,66,0.00,CLR,,0.00,510.0,WeatherDisplay:10.37,2013-06-21 12:57:00,
2013-06-21 09:02:00,69.5,57.2,30.29,SSW,192,4.6,4.6,65,0.00,CLR,,0.00,527.0,WeatherDisplay:10.37,2013-06-21 13:02:00,
2013-06-21 09:07:00,69.9,57.2,30.28,SSW,193,3.5,3.5,64,0.00,CLR,,0.00,541.0,WeatherDisplay:10.37,2013-06-21 13:07:00,
2013-06-21 09:13:00,70.2,57.9,30.28,South,187,3.5,3.5,65,0.00,CLR,,0.00,554.0,WeatherDisplay:10.37,2013-06-21 13:13:00,
2013-06-21 09:18:00,70.5,58.2,30.28,SSE,159,3.5,3.5,65,0.00,CLR,,0.00,571.0,WeatherDisplay:10.37,2013-06-21 13:18:00,
2013-06-21 09:23:00,70.8,58.4,30.28,SE,143,2.3,2.3,65,0.00,CLR,,0.00,582.0,WeatherDisplay:10.37,2013-06-21 13:23:00,
2013-06-21 09:28:00,70.8,58.4,30.28,South,188,3.5,3.5,65,0.00,CLR,,0.00,599.0,WeatherDisplay:10.37,2013-06-21 13:28:00,
2013-06-21 09:33:00,71.0,57.3,30.28,SSE,154,3.5,3.5,62,0.00,CLR,,0.00,610.0,WeatherDisplay:10.37,2013-06-21 13:33:00,
2013-06-21 09:38:00,71.4,57.2,30.27,South,184,4.0,4.0,61,0.00,CLR,,0.00,624.0,WeatherDisplay:10.37,2013-06-21 13:38:00,
2013-06-21 09:43:00,71.5,56.9,30.27,SSW,198,4.6,4.6,60,0.00,CLR,,0.00,638.0,WeatherDisplay:10.37,2013-06-21 13:43:00,
2013-06-21 09:48:00,71.6,57.9,30.28,South,190,3.5,3.5,62,0.00,CLR,,0.00,654.0,WeatherDisplay:10.37,2013-06-21 13:48:00,
2013-06-21 09:53:00,71.8,58.5,30.28,South,175,3.5,3.5,63,0.00,CLR,,0.00,664.0,WeatherDisplay:10.37,2013-06-21 13:53:00,
2013-06-21 09:58:00,72.3,58.1,30.28,SSE,157,3.5,3.5,61,0.00,CLR,,0.00,679.0,WeatherDisplay:10.37,2013-06-21 13:58:00,
2013-06-21 10:03:00,72.5,59.2,30.27,SSE,157,2.3,2.3,63,0.00,CLR,,0.00,694.0,WeatherDisplay:10.37,2013-06-21 14:03:00,
2013-06-21 10:08:00,73.1,58.4,30.27,South,176,3.5,3.5,60,0.00,CLR,,0.00,705.0,WeatherDisplay:10.37,2013-06-21 14:08:00,
2013-06-21 10:13:00,73.6,59.3,30.27,SSW,196,3.5,3.5,61,0.00,CLR,,0.00,715.0,WeatherDisplay:10.37,2013-06-21 14:13:00,
2013-06-21 10:18:00,73.7,58.5,30.27,South,186,3.5,3.5,59,0.00,CLR,,0.00,729.0,WeatherDisplay:10.37,2013-06-21 14:18:00,
2013-06-21 10:23:00,74.2,59.4,30.27,South,190,3.5,3.5,60,0.00,CLR,,0.00,738.0,WeatherDisplay:10.37,2013-06-21 14:23:00,
2013-06-21 10:28:00,74.4,56.7,30.27,SSE,165,3.5,3.5,54,0.00,CLR,,0.00,751.0,WeatherDisplay:10.37,2013-06-21 14:28:00,
2013-06-21 10:33:00,74.6,56.9,30.27,East,96,3.5,3.5,54,0.00,CLR,,0.00,763.0,WeatherDisplay:10.37,2013-06-21 14:33:00,
2013-06-21 10:38:00,74.8,59.0,30.27,South,169,3.5,3.5,58,0.00,CLR,,0.00,773.0,WeatherDisplay:10.37,2013-06-21 14:38:00,
2013-06-21 10:43:00,75.1,56.8,30.27,South,187,3.5,3.5,53,0.00,CLR,,0.00,786.0,WeatherDisplay:10.37,2013-06-21 14:43:00,
2013-06-21 10:48:00,75.2,56.4,30.27,SSE,148,3.5,3.5,52,0.00,CLR,,0.00,796.0,WeatherDisplay:10.37,2013-06-21 14:48:00,
2013-06-21 10:53:00,75.8,59.0,30.27,SSE,157,3.5,3.5,56,0.00,CLR,,0.00,805.0,WeatherDisplay:10.37,2013-06-21 14:53:00,
2013-06-21 10:58:00,75.3,59.5,30.28,SSE,165,4.6,4.6,58,0.00,CLR,,0.00,814.0,WeatherDisplay:10.37,2013-06-21 14:58:00,
2013-06-21 11:03:00,75.5,56.1,30.28,SSE,167,3.5,3.5,51,0.00,CLR,,0.00,823.0,WeatherDisplay:10.37,2013-06-21 15:03:00,
2013-06-21 11:08:00,76.0,58.7,30.28,SE,138,2.3,2.3,55,0.00,CLR,,0.00,830.0,WeatherDisplay:10.37,2013-06-21 15:08:00,
2013-06-21 11:13:00,76.2,59.4,30.28,South,171,3.5,3.5,56,0.00,CLR,,0.00,837.0,WeatherDisplay:10.37,2013-06-21 15:13:00,
2013-06-21 11:18:00,76.1,57.2,30.28,ESE,105,3.5,3.5,52,0.00,CLR,,0.00,847.0,WeatherDisplay:10.37,2013-06-21 15:18:00,
2013-06-21 11:23:00,76.9,58.5,30.28,SE,130,3.5,3.5,53,0.00,CLR,,0.00,849.0,WeatherDisplay:10.37,2013-06-21 15:23:00,
2013-06-21 11:28:00,77.3,58.8,30.28,ESE,120,1.2,1.2,53,0.00,CLR,,0.00,863.0,WeatherDisplay:10.37,2013-06-21 15:28:00,
2013-06-21 11:33:00,77.7,60.2,30.28,SE,130,3.5,3.5,55,0.00,CLR,,0.00,867.0,WeatherDisplay:10.37,2013-06-21 15:33:00,
2013-06-21 11:39:00,77.1,59.7,30.28,SSE,160,3.5,3.5,55,0.00,CLR,,0.00,875.0,WeatherDisplay:10.37,2013-06-21 15:39:00,
2013-06-21 11:44:00,77.5,61.1,30.28,SE,140,3.5,3.5,57,0.00,CLR,,0.00,882.0,WeatherDisplay:10.37,2013-06-21 15:44:00,
2013-06-21 11:49:00,77.7,63.2,30.29,SE,124,2.3,2.3,61,0.00,CLR,,0.00,891.0,WeatherDisplay:10.37,2013-06-21 15:49:00,
2013-06-21 11:54:00,77.5,59.5,30.29,SSE,151,2.3,2.3,54,0.00,CLR,,0.00,905.0,WeatherDisplay:10.37,2013-06-21 15:54:00,
2013-06-21 11:59:00,77.6,58.0,30.30,ESE,116,3.5,3.5,51,0.00,CLR,,0.00,896.0,WeatherDisplay:10.37,2013-06-21 15:59:00,
2013-06-21 12:04:00,77.6,60.7,30.30,South,187,5.8,5.8,56,0.00,CLR,,0.00,867.0,WeatherDisplay:10.37,2013-06-21 16:04:00,
2013-06-21 12:10:00,78.4,60.9,30.30,South,175,3.0,3.0,55,0.00,CLR,,0.00,1011.0,WeatherDisplay:10.37,2013-06-21 16:10:00,
2013-06-21 12:15:00,77.9,57.2,30.30,East,98,2.3,2.3,49,0.00,CLR,,0.00,868.0,WeatherDisplay:10.37,2013-06-21 16:15:00,
2013-06-21 12:20:00,78.2,59.1,30.29,SSE,157,2.3,2.3,52,0.00,CLR,,0.00,751.0,WeatherDisplay:10.37,2013-06-21 16:20:00,
2013-06-21 12:25:00,78.1,62.1,30.29,SSE,158,3.5,3.5,58,0.00,CLR,,0.00,940.0,WeatherDisplay:10.37,2013-06-21 16:25:00,
2013-06-21 12:30:00,78.9,60.8,30.29,ESE,121,4.6,4.6,54,0.00,CLR,,0.00,930.0,WeatherDisplay:10.37,2013-06-21 16:30:00,
2013-06-21 12:35:00,79.0,58.2,30.28,SE,125,3.5,3.5,49,0.00,CLR,,0.00,923.0,WeatherDisplay:10.37,2013-06-21 16:35:00,
2013-06-21 12:40:00,78.6,60.6,30.28,SE,141,2.0,7.0,54,0.00,CLR,,0.00,935.0,WeatherDisplay:10.37,2013-06-21 16:40:00,
2013-06-21 12:45:00,78.7,61.2,30.29,South,176,3.5,3.5,55,0.00,CLR,,0.00,942.0,WeatherDisplay:10.37,2013-06-21 16:45:00,
2013-06-21 12:50:00,79.6,62.0,30.29,SSW,209,3.5,3.5,55,0.00,CLR,,0.00,933.0,WeatherDisplay:10.37,2013-06-21 16:50:00,
2013-06-21 12:55:00,79.2,59.0,30.29,East,98,3.5,3.5,50,0.00,CLR,,0.00,937.0,WeatherDisplay:10.37,2013-06-21 16:55:00,
2013-06-21 13:00:00,79.3,59.6,30.29,ESE,114,3.5,3.5,51,0.00,CLR,,0.00,940.0,WeatherDisplay:10.37,2013-06-21 17:00:00,
2013-06-21 13:06:00,79.6,61.0,30.28,SSE,163,5.8,5.8,53,0.00,CLR,,0.00,942.0,WeatherDisplay:10.37,2013-06-21 17:06:00,
2013-06-21 13:11:00,79.8,60.1,30.28,ESE,106,3.0,3.0,51,0.00,CLR,,0.00,933.0,WeatherDisplay:10.37,2013-06-21 17:11:00,
2013-06-21 13:16:00,79.8,59.5,30.28,ESE,117,3.5,3.5,50,0.00,CLR,,0.00,939.0,WeatherDisplay:10.37,2013-06-21 17:16:00,
2013-06-21 13:21:00,79.9,57.9,30.28,ESE,107,6.9,6.9,47,0.00,CLR,,0.00,939.0,WeatherDisplay:10.37,2013-06-21 17:21:00,
2013-06-21 13:26:00,79.9,59.0,30.27,ESE,113,3.5,3.5,49,0.00,CLR,,0.00,937.0,WeatherDisplay:10.37,2013-06-21 17:26:00,
2013-06-21 13:34:00,80.1,58.6,30.27,ESE,105,3.5,3.5,48,0.00,CLR,,0.00,935.0,WeatherDisplay:10.37,2013-06-21 17:34:00,
2013-06-21 13:40:00,80.3,60.5,30.27,SE,134,4.6,4.6,51,0.00,CLR,,0.00,926.0,WeatherDisplay:10.37,2013-06-21 17:40:00,
2013-06-21 13:45:00,80.2,58.1,30.28,ESE,109,4.6,4.6,47,0.00,CLR,,0.00,937.0,WeatherDisplay:10.37,2013-06-21 17:45:00,
2013-06-21 13:46:00,80.2,58.7,30.28,SE,134,4.6,4.6,48,0.00,CLR,,0.00,937.0,WeatherDisplay:10.37,2013-06-21 17:46:00,
2013-06-21 13:47:00,80.1,60.3,30.28,SSE,165,3.5,3.5,51,0.00,CLR,,0.00,935.0,WeatherDisplay:10.37,2013-06-21 17:47:00,
2013-06-21 13:48:00,80.1,59.8,30.27,SE,140,3.5,3.5,50,0.00,CLR,,0.00,928.0,WeatherDisplay:10.37,2013-06-21 17:48:00,
2013-06-21 13:53:00,80.1,61.4,30.27,SSE,165,3.5,3.5,53,0.00,CLR,,0.00,918.0,WeatherDisplay:10.37,2013-06-21 17:53:00,
2013-06-21 13:59:00,80.1,60.3,30.26,South,177,9.2,9.2,51,0.00,CLR,,0.00,919.0,WeatherDisplay:10.37,2013-06-21 17:59:00,
2013-06-21 14:04:00,80.1,61.4,30.27,SSE,153,3.5,3.5,53,0.00,CLR,,0.00,921.0,WeatherDisplay:10.37,2013-06-21 18:04:00,
2013-06-21 14:09:00,80.5,59.0,30.26,ESE,120,2.3,2.3,48,0.00,CLR,,0.00,912.0,WeatherDisplay:10.37,2013-06-21 18:09:00,
2013-06-21 14:15:00,80.8,61.0,30.26,SSE,153,7.0,7.0,51,0.00,CLR,,0.00,902.0,WeatherDisplay:10.37,2013-06-21 18:15:00,
2013-06-21 14:20:00,80.4,58.3,30.26,SSE,150,2.3,2.3,47,0.00,CLR,,0.00,905.0,WeatherDisplay:10.37,2013-06-21 18:20:00,
2013-06-21 14:23:00,80.7,59.8,30.27,ESE,117,4.6,4.6,49,0.00,CLR,,0.00,904.0,WeatherDisplay:10.37,2013-06-21 18:23:00,
2013-06-21 14:24:00,80.9,59.9,30.27,ESE,111,4.6,4.6,49,0.00,CLR,,0.00,900.0,WeatherDisplay:10.37,2013-06-21 18:24:00,
2013-06-21 14:25:00,80.9,59.9,30.27,South,181,4.6,4.6,49,0.00,CLR,,0.00,895.0,WeatherDisplay:10.37,2013-06-21 18:25:00,
2013-06-21 14:30:00,80.6,57.9,30.27,ESE,117,5.8,5.8,46,0.00,CLR,,0.00,891.0,WeatherDisplay:10.37,2013-06-21 18:30:00,
2013-06-21 14:35:00,80.8,58.1,30.26,ESE,105,3.5,3.5,46,0.00,CLR,,0.00,886.0,WeatherDisplay:10.37,2013-06-21 18:35:00,
2013-06-21 14:42:00,80.9,59.9,30.27,SSW,203,3.5,3.5,49,0.00,CLR,,0.00,875.0,WeatherDisplay:10.37,2013-06-21 18:42:00,
2013-06-21 14:45:00,80.8,61.5,30.27,South,182,5.0,5.0,52,0.00,CLR,,0.00,867.0,WeatherDisplay:10.37,2013-06-21 18:45:00,
2013-06-21 14:46:00,80.8,61.0,30.27,SE,124,3.5,3.5,51,0.00,CLR,,0.00,863.0,WeatherDisplay:10.37,2013-06-21 18:46:00,
2013-06-21 14:51:00,81.4,58.6,30.27,ESE,123,3.5,3.5,46,0.00,CLR,,0.00,863.0,WeatherDisplay:10.37,2013-06-21 18:51:00,
2013-06-21 14:56:00,81.4,58.0,30.27,SE,132,3.5,3.5,45,0.00,CLR,,0.00,854.0,WeatherDisplay:10.37,2013-06-21 18:56:00,
2013-06-21 15:01:00,81.5,62.2,30.27,South,190,3.5,3.5,52,0.00,CLR,,0.00,846.0,WeatherDisplay:10.37,2013-06-21 19:01:00,
2013-06-21 15:06:00,81.8,60.2,30.27,SE,125,3.5,3.5,48,0.00,CLR,,0.00,835.0,WeatherDisplay:10.37,2013-06-21 19:06:00,
2013-06-21 15:11:00,81.2,60.2,30.27,SSE,149,2.3,2.3,49,0.00,CLR,,0.00,830.0,WeatherDisplay:10.37,2013-06-21 19:11:00,
2013-06-21 15:16:00,81.2,58.5,30.27,SE,135,3.5,3.5,46,0.00,CLR,,0.00,824.0,WeatherDisplay:10.37,2013-06-21 19:16:00,
2013-06-21 15:20:00,81.1,57.1,30.27,ESE,117,3.5,3.5,44,0.00,CLR,,0.00,840.0,WeatherDisplay:10.37,2013-06-21 19:20:00,
2013-06-21 15:25:00,81.4,58.0,30.27,SSW,213,3.5,3.5,45,0.00,CLR,,0.00,868.0,WeatherDisplay:10.37,2013-06-21 19:25:00,
2013-06-21 15:30:00,81.5,59.9,30.27,SE,143,2.0,6.0,48,0.00,CLR,,0.00,807.0,WeatherDisplay:10.37,2013-06-21 19:30:00,
2013-06-21 15:35:00,81.8,60.2,30.26,WSW,237,3.5,3.5,48,0.00,CLR,,0.00,784.0,WeatherDisplay:10.37,2013-06-21 19:35:00,
2013-06-21 15:40:00,81.6,60.0,30.25,SSE,165,4.6,4.6,48,0.00,CLR,,0.00,772.0,WeatherDisplay:10.37,2013-06-21 19:40:00,
2013-06-21 15:43:00,81.2,61.9,30.25,SSE,162,3.5,3.5,52,0.00,CLR,,0.00,768.0,WeatherDisplay:10.37,2013-06-21 19:43:00,
2013-06-21 15:48:00,81.1,60.1,30.25,SSE,155,5.8,5.8,49,0.00,CLR,,0.00,761.0,WeatherDisplay:10.37,2013-06-21 19:48:00,
2013-06-21 15:53:00,81.4,58.6,30.25,ESE,111,2.3,2.3,46,0.00,CLR,,0.00,738.0,WeatherDisplay:10.37,2013-06-21 19:53:00,
2013-06-21 15:58:00,81.7,59.5,30.25,SE,130,4.6,4.6,47,0.00,CLR,,0.00,731.0,WeatherDisplay:10.37,2013-06-21 19:58:00,
2013-06-21 16:03:00,81.7,60.7,30.25,SE,143,3.5,3.5,49,0.00,CLR,,0.00,721.0,WeatherDisplay:10.37,2013-06-21 20:03:00,
2013-06-21 16:08:00,81.1,57.7,30.25,ESE,120,3.5,3.5,45,0.00,CLR,,0.00,712.0,WeatherDisplay:10.37,2013-06-21 20:08:00,
2013-06-21 16:09:00,81.0,57.7,30.25,SSE,167,3.5,3.5,45,0.00,CLR,,0.00,710.0,WeatherDisplay:10.37,2013-06-21 20:09:00,
2013-06-21 16:11:00,81.3,57.9,30.25,ESE,114,3.5,3.5,45,0.00,CLR,,0.00,707.0,WeatherDisplay:10.37,2013-06-21 20:11:00,
2013-06-21 16:13:00,81.2,57.8,30.25,East,100,4.6,4.6,45,0.00,CLR,,0.00,698.0,WeatherDisplay:10.37,2013-06-21 20:13:00,
2013-06-21 16:18:00,81.3,62.0,30.25,South,171,3.5,3.5,52,0.00,CLR,,0.00,686.0,WeatherDisplay:10.37,2013-06-21 20:18:00,
2013-06-21 16:23:00,81.4,59.2,30.25,SE,142,3.5,3.5,47,0.00,CLR,,0.00,671.0,WeatherDisplay:10.37,2013-06-21 20:23:00,
2013-06-21 16:28:00,81.8,58.4,30.25,SE,130,3.5,3.5,45,0.00,CLR,,0.00,656.0,WeatherDisplay:10.37,2013-06-21 20:28:00,
2013-06-21 16:33:00,81.5,58.7,30.25,ESE,115,5.8,5.8,46,0.00,CLR,,0.00,647.0,WeatherDisplay:10.37,2013-06-21 20:33:00,
2013-06-21 16:38:00,81.4,59.8,30.25,ESE,107,3.5,3.5,48,0.00,CLR,,0.00,631.0,WeatherDisplay:10.37,2013-06-21 20:38:00,
2013-06-21 16:43:00,81.6,60.0,30.25,SE,137,3.5,3.5,48,0.00,CLR,,0.00,612.0,WeatherDisplay:10.37,2013-06-21 20:43:00,
2013-06-21 16:49:00,81.5,59.9,30.25,ESE,121,5.8,5.8,48,0.00,CLR,,0.00,592.0,WeatherDisplay:10.37,2013-06-21 20:49:00,
2013-06-21 16:54:00,81.3,58.5,30.25,South,173,5.0,5.0,46,0.00,CLR,,0.00,591.0,WeatherDisplay:10.37,2013-06-21 20:54:00,
2013-06-21 16:59:00,81.4,59.8,30.25,ESE,111,3.5,3.5,48,0.00,CLR,,0.00,575.0,WeatherDisplay:10.37,2013-06-21 20:59:00,
2013-06-21 17:04:00,81.4,60.4,30.25,South,175,5.8,5.8,49,0.00,CLR,,0.00,557.0,WeatherDisplay:10.37,2013-06-21 21:04:00,
2013-06-21 17:05:00,81.3,59.1,30.25,South,180,3.5,3.5,47,0.00,CLR,,0.00,557.0,WeatherDisplay:10.37,2013-06-21 21:05:00,
2013-06-21 17:10:00,81.4,62.1,30.25,SE,132,5.0,5.0,52,0.00,CLR,,0.00,538.0,WeatherDisplay:10.37,2013-06-21 21:10:00,
2013-06-21 17:15:00,81.1,59.0,30.24,ESE,121,4.6,4.6,47,0.00,CLR,,0.00,533.0,WeatherDisplay:10.37,2013-06-21 21:15:00,
2013-06-21 17:20:00,80.9,59.4,30.24,ESE,122,5.0,5.0,48,0.00,CLR,,0.00,522.0,WeatherDisplay:10.37,2013-06-21 21:20:00,
2013-06-21 17:25:00,80.6,60.2,30.24,East,80,4.6,4.6,50,0.00,CLR,,0.00,501.0,WeatherDisplay:10.37,2013-06-21 21:25:00,
2013-06-21 17:30:00,81.0,58.3,30.24,East,97,3.5,3.5,46,0.00,CLR,,0.00,478.0,WeatherDisplay:10.37,2013-06-21 21:30:00,
2013-06-21 17:35:00,81.0,60.0,30.24,ESE,110,4.0,4.0,49,0.00,CLR,,0.00,466.0,WeatherDisplay:10.37,2013-06-21 21:35:00,
2013-06-21 17:40:00,81.1,60.7,30.24,SE,130,3.5,3.5,50,0.00,CLR,,0.00,450.0,WeatherDisplay:10.37,2013-06-21 21:40:00,
2013-06-21 17:45:00,80.9,61.1,30.24,ESE,113,3.5,3.5,51,0.00,CLR,,0.00,418.0,WeatherDisplay:10.37,2013-06-21 21:45:00,
2013-06-21 17:50:00,80.3,60.0,30.24,East,96,2.3,2.3,50,0.00,CLR,,0.00,418.0,WeatherDisplay:10.37,2013-06-21 21:50:00,
2013-06-21 17:55:00,80.5,61.8,30.24,ESE,117,4.6,4.6,53,0.00,CLR,,0.00,394.0,WeatherDisplay:10.37,2013-06-21 21:55:00,
2013-06-21 18:00:00,80.4,60.1,30.24,SE,137,3.5,3.5,50,0.00,FEW,,0.00,396.0,WeatherDisplay:10.37,2013-06-21 22:00:00,
2013-06-21 18:05:00,80.3,60.0,30.24,ENE,76,3.5,3.5,50,0.00,FEW,,0.00,367.0,WeatherDisplay:10.37,2013-06-21 22:05:00,
2013-06-21 18:10:00,79.8,60.1,30.24,ESE,115,2.3,2.3,51,0.00,FEW,,0.00,339.0,WeatherDisplay:10.37,2013-06-21 22:10:00,
2013-06-21 18:15:00,79.6,62.0,30.24,South,169,3.5,3.5,55,0.00,FEW,,0.00,308.0,WeatherDisplay:10.37,2013-06-21 22:15:00,
2013-06-21 18:20:00,79.4,60.2,30.25,South,175,3.5,3.5,52,0.00,FEW,,0.00,294.0,WeatherDisplay:10.37,2013-06-21 22:20:00,
2013-06-21 18:25:00,79.0,60.4,30.25,SE,132,3.5,3.5,53,0.00,FEW,,0.00,279.0,WeatherDisplay:10.37,2013-06-21 22:25:00,
2013-06-21 18:30:00,79.0,58.8,30.25,South,176,4.6,4.6,50,0.00,FEW,,0.00,279.0,WeatherDisplay:10.37,2013-06-21 22:30:00,
2013-06-21 18:35:00,79.1,59.4,30.24,ESE,105,4.0,4.0,51,0.00,FEW,,0.00,272.0,WeatherDisplay:10.37,2013-06-21 22:35:00,
2013-06-21 18:40:00,79.0,58.2,30.24,East,88,2.3,2.3,49,0.00,FEW,,0.00,260.0,WeatherDisplay:10.37,2013-06-21 22:40:00,
2013-06-21 18:45:00,78.8,57.4,30.24,ESE,115,2.3,2.3,48,0.00,FEW,,0.00,246.0,WeatherDisplay:10.37,2013-06-21 22:45:00,
2013-06-21 18:50:00,78.5,56.6,30.24,ENE,74,3.5,3.5,47,0.00,FEW,,0.00,227.0,WeatherDisplay:10.37,2013-06-21 22:50:00,
2013-06-21 18:55:00,78.3,56.4,30.24,South,169,3.5,3.5,47,0.00,FEW,,0.00,216.0,WeatherDisplay:10.37,2013-06-21 22:55:00,
2013-06-21 19:00:00,78.2,56.9,30.24,SE,134,3.5,3.5,48,0.00,CLR,,0.00,207.0,WeatherDisplay:10.37,2013-06-21 23:00:00,
2013-06-21 19:05:00,78.1,56.2,30.24,SE,132,3.5,3.5,47,0.00,CLR,,0.00,199.0,WeatherDisplay:10.37,2013-06-21 23:05:00,
2013-06-21 19:10:00,78.0,55.5,30.24,SE,143,3.5,3.5,46,0.00,CLR,,0.00,181.0,WeatherDisplay:10.37,2013-06-21 23:10:00,
2013-06-21 19:15:00,77.8,54.8,30.24,SE,136,3.5,3.5,45,0.00,CLR,,0.00,171.0,WeatherDisplay:10.37,2013-06-21 23:15:00,
2013-06-21 19:20:00,77.4,53.8,30.24,ESE,109,3.5,3.5,44,0.00,CLR,,0.00,83.0,WeatherDisplay:10.37,2013-06-21 23:20:00,
2013-06-21 19:25:00,77.1,53.5,30.24,South,186,3.5,3.5,44,0.00,CLR,,0.00,65.0,WeatherDisplay:10.37,2013-06-21 23:25:00,
2013-06-21 19:30:00,76.8,53.8,30.24,East,88,2.3,2.3,45,0.00,CLR,,0.00,62.0,WeatherDisplay:10.37,2013-06-21 23:30:00,
2013-06-21 19:35:00,76.6,53.7,30.24,ESE,120,3.0,3.0,45,0.00,CLR,,0.00,58.0,WeatherDisplay:10.37,2013-06-21 23:35:00,
2013-06-21 19:40:00,76.4,54.1,30.24,SSE,150,2.3,2.3,46,0.00,CLR,,0.00,54.0,WeatherDisplay:10.37,2013-06-21 23:40:00,
2013-06-21 19:45:00,76.2,53.3,30.24,SSE,148,2.0,2.0,45,0.00,CLR,,0.00,46.0,WeatherDisplay:10.37,2013-06-21 23:45:00,
2013-06-21 19:50:00,75.9,53.0,30.24,SE,125,4.0,4.0,45,0.00,CLR,,0.00,37.0,WeatherDisplay:10.37,2013-06-21 23:50:00,
2013-06-21 19:55:00,75.7,52.8,30.24,SSE,157,2.3,2.3,45,0.00,CLR,,0.00,33.0,WeatherDisplay:10.37,2013-06-21 23:55:00,
2013-06-21 20:00:00,75.4,53.2,30.24,SSE,150,1.2,1.2,46,0.00,CLR,,0.00,30.0,WeatherDisplay:10.37,2013-06-22 00:00:00,
2013-06-21 20:05:00,75.2,52.4,30.24,SSE,150,1.2,1.2,45,0.00,CLR,,0.00,25.0,WeatherDisplay:10.37,2013-06-22 00:05:00,
2013-06-21 20:10:00,75.0,53.4,30.24,SE,132,2.3,0.0,47,0.00,CLR,,0.00,21.0,WeatherDisplay:10.37,2013-06-22 00:10:00,
2013-06-21 20:15:00,74.7,53.1,30.23,SE,130,2.3,2.3,47,0.00,CLR,,0.00,16.0,WeatherDisplay:10.37,2013-06-22 00:15:00,
2013-06-21 20:20:00,74.4,52.9,30.23,SE,129,1.2,1.2,47,0.00,CLR,,0.00,12.0,WeatherDisplay:10.37,2013-06-22 00:20:00,
2013-06-21 20:25:00,74.2,53.2,30.23,SE,130,2.3,2.3,48,0.00,CLR,,0.00,9.0,WeatherDisplay:10.37,2013-06-22 00:25:00,
2013-06-21 20:30:00,74.0,53.1,30.22,SE,130,1.2,1.2,48,0.00,CLR,,0.00,5.0,WeatherDisplay:10.37,2013-06-22 00:30:00,
2013-06-21 20:35:00,73.7,53.3,30.22,ESE,117,2.3,2.3,49,0.00,CLR,,0.00,0.0,WeatherDisplay:10.37,2013-06-22 00:35:00,
2013-06-21 20:40:00,73.4,53.1,30.22,SE,131,1.2,1.2,49,0.00,CLR,,0.00,0.0,WeatherDisplay:10.37,2013-06-22 00:40:00,
2013-06-21 20:45:00,73.1,53.4,30.23,SE,142,2.3,2.3,50,0.00,CLR,,0.00,0.0,WeatherDisplay:10.37,2013-06-22 00:45:00,
2013-06-21 20:50:00,72.9,53.7,30.22,SE,136,1.2,1.2,51,0.00,CLR,,0.00,0.0,WeatherDisplay:10.37,2013-06-22 00:50:00,
2013-06-21 20:55:00,72.6,53.4,30.22,SE,136,1.2,1.2,51,0.00,CLR,,0.00,0.0,WeatherDisplay:10.37,2013-06-22 00:55:00,
2013-06-21 21:00:00,72.4,53.8,30.22,SE,136,0.0,0.0,52,0.00,CLR,,0.00,0.0,WeatherDisplay:10.37,2013-06-22 01:00:00,
2013-06-21 21:05:00,72.1,54.0,30.22,SE,136,0.0,0.0,53,0.00,CLR,,0.00,0.0,WeatherDisplay:10.37,2013-06-22 01:05:00,
2013-06-21 21:10:00,71.9,53.8,30.22,SE,136,1.2,1.2,53,0.00,CLR,,0.00,0.0,WeatherDisplay:10.37,2013-06-22 01:10:00,
2013-06-21 21:15:00,71.7,54.2,30.22,SE,136,1.2,0.0,54,0.00,CLR,,0.00,0.0,WeatherDisplay:10.37,2013-06-22 01:15:00,
2013-06-21 21:20:00,71.6,53.6,30.22,SE,136,2.0,2.0,53,0.00,CLR,,0.00,0.0,WeatherDisplay:10.37,2013-06-22 01:20:00,
2013-06-21 21:26:00,71.5,54.0,30.23,SE,136,1.2,1.2,54,0.00,CLR,,0.00,0.0,WeatherDisplay:10.37,2013-06-22 01:26:00,
2013-06-21 21:31:00,71.4,53.9,30.23,SE,141,2.3,2.3,54,0.00,CLR,,0.00,0.0,WeatherDisplay:10.37,2013-06-22 01:31:00,
2013-06-21 21:36:00,71.4,53.9,30.23,SE,140,2.3,2.3,54,0.00,CLR,,0.00,0.0,WeatherDisplay:10.37,2013-06-22 01:36:00,
2013-06-21 21:41:00,71.3,54.3,30.24,SE,136,1.2,1.2,55,0.00,CLR,,0.00,0.0,WeatherDisplay:10.37,2013-06-22 01:41:00,
2013-06-21 21:46:00,71.1,55.1,30.24,SE,136,1.2,1.2,57,0.00,CLR,,0.00,0.0,WeatherDisplay:10.37,2013-06-22 01:46:00,
2013-06-21 21:51:00,71.0,55.5,30.24,ESE,123,2.3,2.3,58,0.00,CLR,,0.00,0.0,WeatherDisplay:10.37,2013-06-22 01:51:00,
2013-06-21 21:56:00,70.8,55.3,30.24,SE,126,2.3,2.3,58,0.00,CLR,,0.00,0.0,WeatherDisplay:10.37,2013-06-22 01:56:00,
2013-06-21 22:01:00,70.7,55.2,30.24,SE,144,2.3,0.0,58,0.00,CLR,,0.00,0.0,WeatherDisplay:10.37,2013-06-22 02:01:00,
2013-06-21 22:06:00,70.3,55.8,30.24,SE,144,1.2,1.2,60,0.00,CLR,,0.00,0.0,WeatherDisplay:10.37,2013-06-22 02:06:00,
2013-06-21 22:11:00,70.0,56.4,30.24,SSE,155,2.3,2.3,62,0.00,CLR,,0.00,0.0,WeatherDisplay:10.37,2013-06-22 02:11:00,
2013-06-21 22:16:00,69.6,56.9,30.24,ESE,117,2.3,2.3,64,0.00,CLR,,0.00,0.0,WeatherDisplay:10.37,2013-06-22 02:16:00,
2013-06-21 22:21:00,69.3,57.0,30.24,SE,128,3.5,3.5,65,0.00,CLR,,0.00,0.0,WeatherDisplay:10.37,2013-06-22 02:21:00,
2013-06-21 22:26:00,69.2,57.4,30.24,SE,140,3.5,3.5,66,0.00,CLR,,0.00,0.0,WeatherDisplay:10.37,2013-06-22 02:26:00,
2013-06-21 22:31:00,69.0,57.2,30.24,SE,128,2.3,2.3,66,0.00,CLR,,0.00,0.0,WeatherDisplay:10.37,2013-06-22 02:31:00,
2013-06-21 22:36:00,68.9,57.1,30.24,ESE,123,3.5,3.5,66,0.00,CLR,,0.00,0.0,WeatherDisplay:10.37,2013-06-22 02:36:00,
2013-06-21 22:41:00,68.7,56.9,30.24,East,99,3.5,3.5,66,0.00,CLR,,0.00,0.0,WeatherDisplay:10.37,2013-06-22 02:41:00,
2013-06-21 22:46:00,68.5,57.1,30.24,ESE,118,3.5,3.5,67,0.00,CLR,,0.00,0.0,WeatherDisplay:10.37,2013-06-22 02:46:00,
2013-06-21 22:51:00,68.2,56.8,30.24,SSE,159,3.5,3.5,67,0.00,CLR,,0.00,0.0,WeatherDisplay:10.37,2013-06-22 02:51:00,
2013-06-21 22:56:00,68.0,57.0,30.24,South,169,3.5,3.5,68,0.00,CLR,,0.00,0.0,WeatherDisplay:10.37,2013-06-22 02:56:00,
2013-06-21 23:01:00,67.8,56.9,30.23,ESE,123,3.5,3.5,68,0.00,CLR,,0.00,0.0,WeatherDisplay:10.37,2013-06-22 03:01:00,
2013-06-21 23:06:00,67.6,56.2,30.23,ESE,123,3.5,3.5,67,0.00,CLR,,0.00,0.0,WeatherDisplay:10.37,2013-06-22 03:06:00,
2013-06-21 23:11:00,67.4,56.1,30.24,SSE,150,3.5,3.5,67,0.00,CLR,,0.00,0.0,WeatherDisplay:10.37,2013-06-22 03:11:00,
2013-06-21 23:16:00,67.2,55.9,30.24,SSE,148,3.5,3.5,67,0.00,CLR,,0.00,0.0,WeatherDisplay:10.37,2013-06-22 03:16:00,
2013-06-21 23:21:00,67.0,56.1,30.24,SE,146,2.3,2.3,68,0.00,CLR,,0.00,0.0,WeatherDisplay:10.37,2013-06-22 03:21:00,
2013-06-21 23:26:00,66.8,55.5,30.24,SE,138,3.5,3.5,67,0.00,CLR,,0.00,0.0,WeatherDisplay:10.37,2013-06-22 03:26:00,
2013-06-21 23:31:00,66.6,55.3,30.24,SE,131,2.3,2.3,67,0.00,CLR,,0.00,0.0,WeatherDisplay:10.37,2013-06-22 03:31:00,
2013-06-21 23:36:00,66.6,54.9,30.24,SSE,166,1.2,1.2,66,0.00,CLR,,0.00,0.0,WeatherDisplay:10.37,2013-06-22 03:36:00,
2013-06-21 23:41:00,66.6,54.0,30.24,SE,142,2.3,2.3,64,0.00,CLR,,0.00,0.0,WeatherDisplay:10.37,2013-06-22 03:41:00,
2013-06-21 23:46:00,66.6,53.6,30.24,SE,134,1.2,1.2,63,0.00,CLR,,0.00,0.0,WeatherDisplay:10.37,2013-06-22 03:46:00,
2013-06-21 23:51:00,66.5,53.5,30.24,East,101,2.3,2.3,63,0.00,CLR,,0.00,0.0,WeatherDisplay:10.37,2013-06-22 03:51:00,
2013-06-21 23:56:00,66.3,52.9,30.24,SE,143,3.5,3.5,62,0.00,CLR,,0.00,0.0,WeatherDisplay:10.37,2013-06-22 03:56:00,